Index of /20260508/WXO-DD/model_rdps/10km/12/079
Name Last modified Size Description
Parent Directory -
20260508T12Z_MSC_RDPS_AbsoluteVorticity_IsbL-0250_RLatLon0.09_PT079H.grib2 2026-05-08 15:05 609K
20260508T12Z_MSC_RDPS_AbsoluteVorticity_IsbL-0500_RLatLon0.09_PT079H.grib2 2026-05-08 15:05 573K
20260508T12Z_MSC_RDPS_AbsoluteVorticity_IsbL-0700_RLatLon0.09_PT079H.grib2 2026-05-08 15:05 632K
20260508T12Z_MSC_RDPS_AbsoluteVorticity_IsbL-0850_RLatLon0.09_PT079H.grib2 2026-05-08 15:05 790K
20260508T12Z_MSC_RDPS_AirTemp_AGL-120m_RLatLon0.09_PT079H.grib2 2026-05-08 15:05 383K
20260508T12Z_MSC_RDPS_AirTemp_AGL-2m_RLatLon0.09_PT079H.grib2 2026-05-08 15:05 629K
20260508T12Z_MSC_RDPS_AirTemp_AGL-40m_RLatLon0.09_PT079H.grib2 2026-05-08 15:05 392K
20260508T12Z_MSC_RDPS_AirTemp_AGL-80m_RLatLon0.09_PT079H.grib2 2026-05-08 15:05 387K
20260508T12Z_MSC_RDPS_AirTemp_IsbL-0001_RLatLon0.09_PT079H.grib2 2026-05-08 15:05 332K
20260508T12Z_MSC_RDPS_AirTemp_IsbL-0005_RLatLon0.09_PT079H.grib2 2026-05-08 15:05 384K
20260508T12Z_MSC_RDPS_AirTemp_IsbL-0010_RLatLon0.09_PT079H.grib2 2026-05-08 15:05 394K
20260508T12Z_MSC_RDPS_AirTemp_IsbL-0020_RLatLon0.09_PT079H.grib2 2026-05-08 15:05 323K
20260508T12Z_MSC_RDPS_AirTemp_IsbL-0030_RLatLon0.09_PT079H.grib2 2026-05-08 15:05 344K
20260508T12Z_MSC_RDPS_AirTemp_IsbL-0050_RLatLon0.09_PT079H.grib2 2026-05-08 15:05 312K
20260508T12Z_MSC_RDPS_AirTemp_IsbL-0100_RLatLon0.09_PT079H.grib2 2026-05-08 15:05 423K
20260508T12Z_MSC_RDPS_AirTemp_IsbL-0150_RLatLon0.09_PT079H.grib2 2026-05-08 15:05 405K
20260508T12Z_MSC_RDPS_AirTemp_IsbL-0175_RLatLon0.09_PT079H.grib2 2026-05-08 15:05 398K
20260508T12Z_MSC_RDPS_AirTemp_IsbL-0200_RLatLon0.09_PT079H.grib2 2026-05-08 15:05 404K
20260508T12Z_MSC_RDPS_AirTemp_IsbL-0225_RLatLon0.09_PT079H.grib2 2026-05-08 15:05 413K
20260508T12Z_MSC_RDPS_AirTemp_IsbL-0250_RLatLon0.09_PT079H.grib2 2026-05-08 15:05 427K
20260508T12Z_MSC_RDPS_AirTemp_IsbL-0275_RLatLon0.09_PT079H.grib2 2026-05-08 15:05 406K
20260508T12Z_MSC_RDPS_AirTemp_IsbL-0300_RLatLon0.09_PT079H.grib2 2026-05-08 15:05 410K
20260508T12Z_MSC_RDPS_AirTemp_IsbL-0350_RLatLon0.09_PT079H.grib2 2026-05-08 15:05 420K
20260508T12Z_MSC_RDPS_AirTemp_IsbL-0400_RLatLon0.09_PT079H.grib2 2026-05-08 15:05 424K
20260508T12Z_MSC_RDPS_AirTemp_IsbL-0450_RLatLon0.09_PT079H.grib2 2026-05-08 15:05 432K
20260508T12Z_MSC_RDPS_AirTemp_IsbL-0500_RLatLon0.09_PT079H.grib2 2026-05-08 15:05 444K
20260508T12Z_MSC_RDPS_AirTemp_IsbL-0550_RLatLon0.09_PT079H.grib2 2026-05-08 15:05 463K
20260508T12Z_MSC_RDPS_AirTemp_IsbL-0600_RLatLon0.09_PT079H.grib2 2026-05-08 15:05 485K
20260508T12Z_MSC_RDPS_AirTemp_IsbL-0650_RLatLon0.09_PT079H.grib2 2026-05-08 15:05 504K
20260508T12Z_MSC_RDPS_AirTemp_IsbL-0700_RLatLon0.09_PT079H.grib2 2026-05-08 15:05 492K
20260508T12Z_MSC_RDPS_AirTemp_IsbL-0750_RLatLon0.09_PT079H.grib2 2026-05-08 15:05 537K
20260508T12Z_MSC_RDPS_AirTemp_IsbL-0800_RLatLon0.09_PT079H.grib2 2026-05-08 15:05 589K
20260508T12Z_MSC_RDPS_AirTemp_IsbL-0850_RLatLon0.09_PT079H.grib2 2026-05-08 15:05 637K
20260508T12Z_MSC_RDPS_AirTemp_IsbL-0875_RLatLon0.09_PT079H.grib2 2026-05-08 15:05 656K
20260508T12Z_MSC_RDPS_AirTemp_IsbL-0900_RLatLon0.09_PT079H.grib2 2026-05-08 15:05 534K
20260508T12Z_MSC_RDPS_AirTemp_IsbL-0925_RLatLon0.09_PT079H.grib2 2026-05-08 15:05 537K
20260508T12Z_MSC_RDPS_AirTemp_IsbL-0950_RLatLon0.09_PT079H.grib2 2026-05-08 15:05 542K
20260508T12Z_MSC_RDPS_AirTemp_IsbL-0970_RLatLon0.09_PT079H.grib2 2026-05-08 15:05 541K
20260508T12Z_MSC_RDPS_AirTemp_IsbL-0985_RLatLon0.09_PT079H.grib2 2026-05-08 15:05 531K
20260508T12Z_MSC_RDPS_AirTemp_IsbL-1000_RLatLon0.09_PT079H.grib2 2026-05-08 15:05 512K
20260508T12Z_MSC_RDPS_AirTemp_IsbL-1015_RLatLon0.09_PT079H.grib2 2026-05-08 15:05 512K
20260508T12Z_MSC_RDPS_Albedo_Sfc_RLatLon0.09_PT079H.grib2 2026-05-08 15:05 157K
20260508T12Z_MSC_RDPS_CAPE_Sfc_RLatLon0.09_PT079H.grib2 2026-05-08 15:05 1.8M
20260508T12Z_MSC_RDPS_CIN_Sfc_RLatLon0.09_PT079H.grib2 2026-05-08 15:05 1.3M
20260508T12Z_MSC_RDPS_CloudWater_EAtm_RLatLon0.09_PT079H.grib2 2026-05-08 15:05 230K
20260508T12Z_MSC_RDPS_ConvectivePrecip-Accum_Sfc_RLatLon0.09_PT079H.grib2 2026-05-08 15:05 1.4M
20260508T12Z_MSC_RDPS_DewPointDepression_AGL-2m_RLatLon0.09_PT079H.grib2 2026-05-08 15:05 420K
20260508T12Z_MSC_RDPS_DewPointDepression_IsbL-0001_RLatLon0.09_PT079H.grib2 2026-05-08 15:05 193
20260508T12Z_MSC_RDPS_DewPointDepression_IsbL-0005_RLatLon0.09_PT079H.grib2 2026-05-08 15:05 193
20260508T12Z_MSC_RDPS_DewPointDepression_IsbL-0010_RLatLon0.09_PT079H.grib2 2026-05-08 15:05 193
20260508T12Z_MSC_RDPS_DewPointDepression_IsbL-0020_RLatLon0.09_PT079H.grib2 2026-05-08 15:05 193
20260508T12Z_MSC_RDPS_DewPointDepression_IsbL-0030_RLatLon0.09_PT079H.grib2 2026-05-08 15:05 193
20260508T12Z_MSC_RDPS_DewPointDepression_IsbL-0050_RLatLon0.09_PT079H.grib2 2026-05-08 15:05 107K
20260508T12Z_MSC_RDPS_DewPointDepression_IsbL-0100_RLatLon0.09_PT079H.grib2 2026-05-08 15:05 111K
20260508T12Z_MSC_RDPS_DewPointDepression_IsbL-0150_RLatLon0.09_PT079H.grib2 2026-05-08 15:05 147K
20260508T12Z_MSC_RDPS_DewPointDepression_IsbL-0175_RLatLon0.09_PT079H.grib2 2026-05-08 15:05 170K
20260508T12Z_MSC_RDPS_DewPointDepression_IsbL-0200_RLatLon0.09_PT079H.grib2 2026-05-08 15:05 218K
20260508T12Z_MSC_RDPS_DewPointDepression_IsbL-0225_RLatLon0.09_PT079H.grib2 2026-05-08 15:05 261K
20260508T12Z_MSC_RDPS_DewPointDepression_IsbL-0250_RLatLon0.09_PT079H.grib2 2026-05-08 15:05 302K
20260508T12Z_MSC_RDPS_DewPointDepression_IsbL-0275_RLatLon0.09_PT079H.grib2 2026-05-08 15:05 309K
20260508T12Z_MSC_RDPS_DewPointDepression_IsbL-0300_RLatLon0.09_PT079H.grib2 2026-05-08 15:05 324K
20260508T12Z_MSC_RDPS_DewPointDepression_IsbL-0350_RLatLon0.09_PT079H.grib2 2026-05-08 15:05 331K
20260508T12Z_MSC_RDPS_DewPointDepression_IsbL-0400_RLatLon0.09_PT079H.grib2 2026-05-08 15:05 345K
20260508T12Z_MSC_RDPS_DewPointDepression_IsbL-0450_RLatLon0.09_PT079H.grib2 2026-05-08 15:05 355K
20260508T12Z_MSC_RDPS_DewPointDepression_IsbL-0500_RLatLon0.09_PT079H.grib2 2026-05-08 15:05 360K
20260508T12Z_MSC_RDPS_DewPointDepression_IsbL-0550_RLatLon0.09_PT079H.grib2 2026-05-08 15:05 373K
20260508T12Z_MSC_RDPS_DewPointDepression_IsbL-0600_RLatLon0.09_PT079H.grib2 2026-05-08 15:05 387K
20260508T12Z_MSC_RDPS_DewPointDepression_IsbL-0650_RLatLon0.09_PT079H.grib2 2026-05-08 15:05 395K
20260508T12Z_MSC_RDPS_DewPointDepression_IsbL-0700_RLatLon0.09_PT079H.grib2 2026-05-08 15:05 410K
20260508T12Z_MSC_RDPS_DewPointDepression_IsbL-0750_RLatLon0.09_PT079H.grib2 2026-05-08 15:05 431K
20260508T12Z_MSC_RDPS_DewPointDepression_IsbL-0800_RLatLon0.09_PT079H.grib2 2026-05-08 15:05 466K
20260508T12Z_MSC_RDPS_DewPointDepression_IsbL-0850_RLatLon0.09_PT079H.grib2 2026-05-08 15:05 476K
20260508T12Z_MSC_RDPS_DewPointDepression_IsbL-0875_RLatLon0.09_PT079H.grib2 2026-05-08 15:05 469K
20260508T12Z_MSC_RDPS_DewPointDepression_IsbL-0900_RLatLon0.09_PT079H.grib2 2026-05-08 15:05 456K
20260508T12Z_MSC_RDPS_DewPointDepression_IsbL-0925_RLatLon0.09_PT079H.grib2 2026-05-08 15:05 447K
20260508T12Z_MSC_RDPS_DewPointDepression_IsbL-0950_RLatLon0.09_PT079H.grib2 2026-05-08 15:05 446K
20260508T12Z_MSC_RDPS_DewPointDepression_IsbL-0970_RLatLon0.09_PT079H.grib2 2026-05-08 15:05 443K
20260508T12Z_MSC_RDPS_DewPointDepression_IsbL-0985_RLatLon0.09_PT079H.grib2 2026-05-08 15:05 438K
20260508T12Z_MSC_RDPS_DewPointDepression_IsbL-1000_RLatLon0.09_PT079H.grib2 2026-05-08 15:05 429K
20260508T12Z_MSC_RDPS_DewPointDepression_IsbL-1015_RLatLon0.09_PT079H.grib2 2026-05-08 15:05 418K
20260508T12Z_MSC_RDPS_DewPoint_AGL-2m_RLatLon0.09_PT079H.grib2 2026-05-08 15:05 398K
20260508T12Z_MSC_RDPS_DownwardLongwaveRadiationFlux-Accum_Sfc_RLatLon0.09_PT079H.grib2 2026-05-08 15:05 438K
20260508T12Z_MSC_RDPS_DownwardShortwaveRadiationFlux-Accum_NTAtm_RLatLon0.09_PT079H.grib2 2026-05-08 15:05 122K
20260508T12Z_MSC_RDPS_DownwardShortwaveRadiationFlux-Accum_Sfc_RLatLon0.09_PT079H.grib2 2026-05-08 15:05 653K
20260508T12Z_MSC_RDPS_FreezingRain-Accum1h_Sfc_RLatLon0.09_PT079H.grib2 2026-05-08 15:05 35K
20260508T12Z_MSC_RDPS_FreezingRain-Accum_Sfc_RLatLon0.09_PT079H.grib2 2026-05-08 15:05 221K
20260508T12Z_MSC_RDPS_GeopotentialHeight_IsbL-0001_RLatLon0.09_PT079H.grib2 2026-05-08 15:05 253K
20260508T12Z_MSC_RDPS_GeopotentialHeight_IsbL-0005_RLatLon0.09_PT079H.grib2 2026-05-08 15:05 344K
20260508T12Z_MSC_RDPS_GeopotentialHeight_IsbL-0010_RLatLon0.09_PT079H.grib2 2026-05-08 15:05 313K
20260508T12Z_MSC_RDPS_GeopotentialHeight_IsbL-0020_RLatLon0.09_PT079H.grib2 2026-05-08 15:05 313K
20260508T12Z_MSC_RDPS_GeopotentialHeight_IsbL-0030_RLatLon0.09_PT079H.grib2 2026-05-08 15:05 316K
20260508T12Z_MSC_RDPS_GeopotentialHeight_IsbL-0050_RLatLon0.09_PT079H.grib2 2026-05-08 15:05 314K
20260508T12Z_MSC_RDPS_GeopotentialHeight_IsbL-0100_RLatLon0.09_PT079H.grib2 2026-05-08 15:05 286K
20260508T12Z_MSC_RDPS_GeopotentialHeight_IsbL-0150_RLatLon0.09_PT079H.grib2 2026-05-08 15:05 228K
20260508T12Z_MSC_RDPS_GeopotentialHeight_IsbL-0175_RLatLon0.09_PT079H.grib2 2026-05-08 15:05 230K
20260508T12Z_MSC_RDPS_GeopotentialHeight_IsbL-0200_RLatLon0.09_PT079H.grib2 2026-05-08 15:05 232K
20260508T12Z_MSC_RDPS_GeopotentialHeight_IsbL-0225_RLatLon0.09_PT079H.grib2 2026-05-08 15:05 234K
20260508T12Z_MSC_RDPS_GeopotentialHeight_IsbL-0250_RLatLon0.09_PT079H.grib2 2026-05-08 15:05 236K
20260508T12Z_MSC_RDPS_GeopotentialHeight_IsbL-0275_RLatLon0.09_PT079H.grib2 2026-05-08 15:05 235K
20260508T12Z_MSC_RDPS_GeopotentialHeight_IsbL-0300_RLatLon0.09_PT079H.grib2 2026-05-08 15:05 235K
20260508T12Z_MSC_RDPS_GeopotentialHeight_IsbL-0350_RLatLon0.09_PT079H.grib2 2026-05-08 15:05 231K
20260508T12Z_MSC_RDPS_GeopotentialHeight_IsbL-0400_RLatLon0.09_PT079H.grib2 2026-05-08 15:05 300K
20260508T12Z_MSC_RDPS_GeopotentialHeight_IsbL-0450_RLatLon0.09_PT079H.grib2 2026-05-08 15:05 295K
20260508T12Z_MSC_RDPS_GeopotentialHeight_IsbL-0500_RLatLon0.09_PT079H.grib2 2026-05-08 15:05 290K
20260508T12Z_MSC_RDPS_GeopotentialHeight_IsbL-0550_RLatLon0.09_PT079H.grib2 2026-05-08 15:05 286K
20260508T12Z_MSC_RDPS_GeopotentialHeight_IsbL-0600_RLatLon0.09_PT079H.grib2 2026-05-08 15:05 284K
20260508T12Z_MSC_RDPS_GeopotentialHeight_IsbL-0650_RLatLon0.09_PT079H.grib2 2026-05-08 15:05 255K
20260508T12Z_MSC_RDPS_GeopotentialHeight_IsbL-0700_RLatLon0.09_PT079H.grib2 2026-05-08 15:05 255K
20260508T12Z_MSC_RDPS_GeopotentialHeight_IsbL-0750_RLatLon0.09_PT079H.grib2 2026-05-08 15:05 342K
20260508T12Z_MSC_RDPS_GeopotentialHeight_IsbL-0800_RLatLon0.09_PT079H.grib2 2026-05-08 15:05 350K
20260508T12Z_MSC_RDPS_GeopotentialHeight_IsbL-0850_RLatLon0.09_PT079H.grib2 2026-05-08 15:05 358K
20260508T12Z_MSC_RDPS_GeopotentialHeight_IsbL-0875_RLatLon0.09_PT079H.grib2 2026-05-08 15:05 361K
20260508T12Z_MSC_RDPS_GeopotentialHeight_IsbL-0900_RLatLon0.09_PT079H.grib2 2026-05-08 15:05 363K
20260508T12Z_MSC_RDPS_GeopotentialHeight_IsbL-0925_RLatLon0.09_PT079H.grib2 2026-05-08 15:05 368K
20260508T12Z_MSC_RDPS_GeopotentialHeight_IsbL-0950_RLatLon0.09_PT079H.grib2 2026-05-08 15:05 372K
20260508T12Z_MSC_RDPS_GeopotentialHeight_IsbL-0970_RLatLon0.09_PT079H.grib2 2026-05-08 15:05 378K
20260508T12Z_MSC_RDPS_GeopotentialHeight_IsbL-0985_RLatLon0.09_PT079H.grib2 2026-05-08 15:05 389K
20260508T12Z_MSC_RDPS_GeopotentialHeight_IsbL-1000_RLatLon0.09_PT079H.grib2 2026-05-08 15:05 403K
20260508T12Z_MSC_RDPS_GeopotentialHeight_IsbL-1015_RLatLon0.09_PT079H.grib2 2026-05-08 15:05 418K
20260508T12Z_MSC_RDPS_HighLowPressure_MSL_RLatLon0.09_PT079H.json 2026-05-08 14:57 21K
20260508T12Z_MSC_RDPS_Humidex_Sfc_RLatLon0.09_PT079H.grib2 2026-05-08 15:05 2.4M
20260508T12Z_MSC_RDPS_IcePellets-Accum1h_Sfc_RLatLon0.09_PT079H.grib2 2026-05-08 15:05 13K
20260508T12Z_MSC_RDPS_IcePellets-Accum_Sfc_RLatLon0.09_PT079H.grib2 2026-05-08 15:05 53K
20260508T12Z_MSC_RDPS_KIndex_Sfc_RLatLon0.09_PT079H.grib2 2026-05-08 15:05 2.5M
20260508T12Z_MSC_RDPS_LatentHeatNetFlux_Sfc_RLatLon0.09_PT079H.grib2 2026-05-08 15:05 320K
20260508T12Z_MSC_RDPS_LiftedIndex-MU-VT_IsbL-0500_RLatLon0.09_PT079H.grib2 2026-05-08 15:05 2.4M
20260508T12Z_MSC_RDPS_NetLongwaveRadiationFlux-Accum_Sfc_RLatLon0.09_PT079H.grib2 2026-05-08 15:05 490K
20260508T12Z_MSC_RDPS_NetShortwaveRadiationFlux-Accum_Sfc_RLatLon0.09_PT079H.grib2 2026-05-08 15:05 655K
20260508T12Z_MSC_RDPS_PlanetaryBoundaryLayerHeight_Sfc_RLatLon0.09_PT079H.grib2 2026-05-08 15:05 1.0M
20260508T12Z_MSC_RDPS_Precip-Accum1h_Sfc_RLatLon0.09_PT079H.grib2 2026-05-08 15:05 1.3M
20260508T12Z_MSC_RDPS_Precip-Accum_Sfc_RLatLon0.09_PT079H.grib2 2026-05-08 15:05 2.1M
20260508T12Z_MSC_RDPS_PrecipRate_Sfc_RLatLon0.09_PT079H.grib2 2026-05-08 15:05 191K
20260508T12Z_MSC_RDPS_PrecipType-Instant_Sfc_RLatLon0.09_PT079H.grib2 2026-05-08 15:05 638K
20260508T12Z_MSC_RDPS_Pressure-Trend3h_Sfc_RLatLon0.09_PT079H.grib2 2026-05-08 15:05 1.2M
20260508T12Z_MSC_RDPS_Pressure_MSL_RLatLon0.09_PT079H.grib2 2026-05-08 15:05 330K
20260508T12Z_MSC_RDPS_Pressure_PVU-1.5_RLatLon0.09_PT079H.grib2 2026-05-08 15:05 2.5M
20260508T12Z_MSC_RDPS_Pressure_PVU-1_RLatLon0.09_PT079H.grib2 2026-05-08 15:05 2.4M
20260508T12Z_MSC_RDPS_Pressure_PVU-2_RLatLon0.09_PT079H.grib2 2026-05-08 15:05 2.4M
20260508T12Z_MSC_RDPS_Pressure_Sfc_RLatLon0.09_PT079H.grib2 2026-05-08 15:05 499K
20260508T12Z_MSC_RDPS_RadiativeTemp_Sfc_RLatLon0.09_PT079H.grib2 2026-05-08 15:05 335K
20260508T12Z_MSC_RDPS_Rain-Accum1h_Sfc_RLatLon0.09_PT079H.grib2 2026-05-08 15:05 687K
20260508T12Z_MSC_RDPS_Rain-Accum_Sfc_RLatLon0.09_PT079H.grib2 2026-05-08 15:05 1.9M
20260508T12Z_MSC_RDPS_RelativeHumidity_AGL-2m_RLatLon0.09_PT079H.grib2 2026-05-08 15:05 1.0M
20260508T12Z_MSC_RDPS_RelativeHumidity_IsbL-0010_RLatLon0.09_PT079H.grib2 2026-05-08 15:05 551K
20260508T12Z_MSC_RDPS_RelativeHumidity_IsbL-0020_RLatLon0.09_PT079H.grib2 2026-05-08 15:05 622K
20260508T12Z_MSC_RDPS_RelativeHumidity_IsbL-0030_RLatLon0.09_PT079H.grib2 2026-05-08 15:05 621K
20260508T12Z_MSC_RDPS_RelativeHumidity_IsbL-0050_RLatLon0.09_PT079H.grib2 2026-05-08 15:05 354K
20260508T12Z_MSC_RDPS_RelativeHumidity_IsbL-0100_RLatLon0.09_PT079H.grib2 2026-05-08 15:05 274K
20260508T12Z_MSC_RDPS_RelativeHumidity_IsbL-0150_RLatLon0.09_PT079H.grib2 2026-05-08 15:05 416K
20260508T12Z_MSC_RDPS_RelativeHumidity_IsbL-0175_RLatLon0.09_PT079H.grib2 2026-05-08 15:05 475K
20260508T12Z_MSC_RDPS_RelativeHumidity_IsbL-0200_RLatLon0.09_PT079H.grib2 2026-05-08 15:05 542K
20260508T12Z_MSC_RDPS_RelativeHumidity_IsbL-0225_RLatLon0.09_PT079H.grib2 2026-05-08 15:05 620K
20260508T12Z_MSC_RDPS_RelativeHumidity_IsbL-0250_RLatLon0.09_PT079H.grib2 2026-05-08 15:05 703K
20260508T12Z_MSC_RDPS_RelativeHumidity_IsbL-0275_RLatLon0.09_PT079H.grib2 2026-05-08 15:05 729K
20260508T12Z_MSC_RDPS_RelativeHumidity_IsbL-0300_RLatLon0.09_PT079H.grib2 2026-05-08 15:05 767K
20260508T12Z_MSC_RDPS_RelativeHumidity_IsbL-0350_RLatLon0.09_PT079H.grib2 2026-05-08 15:05 779K
20260508T12Z_MSC_RDPS_RelativeHumidity_IsbL-0400_RLatLon0.09_PT079H.grib2 2026-05-08 15:05 800K
20260508T12Z_MSC_RDPS_RelativeHumidity_IsbL-0450_RLatLon0.09_PT079H.grib2 2026-05-08 15:05 813K
20260508T12Z_MSC_RDPS_RelativeHumidity_IsbL-0500_RLatLon0.09_PT079H.grib2 2026-05-08 15:05 820K
20260508T12Z_MSC_RDPS_RelativeHumidity_IsbL-0550_RLatLon0.09_PT079H.grib2 2026-05-08 15:05 838K
20260508T12Z_MSC_RDPS_RelativeHumidity_IsbL-0600_RLatLon0.09_PT079H.grib2 2026-05-08 15:05 863K
20260508T12Z_MSC_RDPS_RelativeHumidity_IsbL-0650_RLatLon0.09_PT079H.grib2 2026-05-08 15:05 876K
20260508T12Z_MSC_RDPS_RelativeHumidity_IsbL-0700_RLatLon0.09_PT079H.grib2 2026-05-08 15:05 905K
20260508T12Z_MSC_RDPS_RelativeHumidity_IsbL-0750_RLatLon0.09_PT079H.grib2 2026-05-08 15:05 956K
20260508T12Z_MSC_RDPS_RelativeHumidity_IsbL-0800_RLatLon0.09_PT079H.grib2 2026-05-08 15:05 1.0M
20260508T12Z_MSC_RDPS_RelativeHumidity_IsbL-0850_RLatLon0.09_PT079H.grib2 2026-05-08 15:05 1.0M
20260508T12Z_MSC_RDPS_RelativeHumidity_IsbL-0875_RLatLon0.09_PT079H.grib2 2026-05-08 15:05 1.1M
20260508T12Z_MSC_RDPS_RelativeHumidity_IsbL-0900_RLatLon0.09_PT079H.grib2 2026-05-08 15:05 1.1M
20260508T12Z_MSC_RDPS_RelativeHumidity_IsbL-0925_RLatLon0.09_PT079H.grib2 2026-05-08 15:05 1.1M
20260508T12Z_MSC_RDPS_RelativeHumidity_IsbL-0950_RLatLon0.09_PT079H.grib2 2026-05-08 15:05 1.1M
20260508T12Z_MSC_RDPS_RelativeHumidity_IsbL-0970_RLatLon0.09_PT079H.grib2 2026-05-08 15:05 1.1M
20260508T12Z_MSC_RDPS_RelativeHumidity_IsbL-0985_RLatLon0.09_PT079H.grib2 2026-05-08 15:05 1.0M
20260508T12Z_MSC_RDPS_RelativeHumidity_IsbL-1000_RLatLon0.09_PT079H.grib2 2026-05-08 15:05 1.0M
20260508T12Z_MSC_RDPS_RelativeHumidity_IsbL-1015_RLatLon0.09_PT079H.grib2 2026-05-08 15:05 1.0M
20260508T12Z_MSC_RDPS_Runoff-Accum_Sfc_RLatLon0.09_PT079H.grib2 2026-05-08 15:05 53K
20260508T12Z_MSC_RDPS_SWEATIndex_Sfc_RLatLon0.09_PT079H.grib2 2026-05-08 15:05 2.5M
20260508T12Z_MSC_RDPS_SeeingIndex_EAtm_RLatLon0.09_PT079H.grib2 2026-05-08 15:05 1.1M
20260508T12Z_MSC_RDPS_SensibleHeatNetFlux_Sfc_RLatLon0.09_PT079H.grib2 2026-05-08 15:05 284K
20260508T12Z_MSC_RDPS_ShowalterIndex_IsbL-0500_RLatLon0.09_PT079H.grib2 2026-05-08 15:05 2.6M
20260508T12Z_MSC_RDPS_SkyTransparencyIndex_EAtm_RLatLon0.09_PT079H.grib2 2026-05-08 15:05 702K
20260508T12Z_MSC_RDPS_Snow-Accum1h_Sfc_RLatLon0.09_PT079H.grib2 2026-05-08 15:05 466K
20260508T12Z_MSC_RDPS_Snow-Accum_Sfc_RLatLon0.09_PT079H.grib2 2026-05-08 15:05 689K
20260508T12Z_MSC_RDPS_SnowDensity_Sfc_RLatLon0.09_PT079H.grib2 2026-05-08 15:05 170K
20260508T12Z_MSC_RDPS_SnowDepth_Sfc_RLatLon0.09_PT079H.grib2 2026-05-08 15:05 615K
20260508T12Z_MSC_RDPS_SoilTemp_DBS-0to10cm_RLatLon0.09_PT079H.grib2 2026-05-08 15:05 246K
20260508T12Z_MSC_RDPS_SoilTemp_Sfc_RLatLon0.09_PT079H.grib2 2026-05-08 15:05 299K
20260508T12Z_MSC_RDPS_SoilVolumetricIceContent_Sfc_RLatLon0.09_PT079H.grib2 2026-05-08 15:05 140K
20260508T12Z_MSC_RDPS_SoilVolumetricWaterContent_DBS-0to10cm_RLatLon0.09_PT079H.grib2 2026-05-08 15:05 296K
20260508T12Z_MSC_RDPS_SoilVolumetricWaterContent_DBS-0to1cm_RLatLon0.09_PT079H.grib2 2026-05-08 15:05 346K
20260508T12Z_MSC_RDPS_SpecificHumidity_AGL-120m_RLatLon0.09_PT079H.grib2 2026-05-08 15:05 512K
20260508T12Z_MSC_RDPS_SpecificHumidity_AGL-2m_RLatLon0.09_PT079H.grib2 2026-05-08 15:05 686K
20260508T12Z_MSC_RDPS_SpecificHumidity_AGL-40m_RLatLon0.09_PT079H.grib2 2026-05-08 15:05 516K
20260508T12Z_MSC_RDPS_SpecificHumidity_AGL-80m_RLatLon0.09_PT079H.grib2 2026-05-08 15:05 513K
20260508T12Z_MSC_RDPS_SpecificHumidity_IsbL-0001_RLatLon0.09_PT079H.grib2 2026-05-08 15:05 366K
20260508T12Z_MSC_RDPS_SpecificHumidity_IsbL-0005_RLatLon0.09_PT079H.grib2 2026-05-08 15:05 357K
20260508T12Z_MSC_RDPS_SpecificHumidity_IsbL-0010_RLatLon0.09_PT079H.grib2 2026-05-08 15:05 384K
20260508T12Z_MSC_RDPS_SpecificHumidity_IsbL-0020_RLatLon0.09_PT079H.grib2 2026-05-08 15:05 481K
20260508T12Z_MSC_RDPS_SpecificHumidity_IsbL-0030_RLatLon0.09_PT079H.grib2 2026-05-08 15:05 360K
20260508T12Z_MSC_RDPS_SpecificHumidity_IsbL-0050_RLatLon0.09_PT079H.grib2 2026-05-08 15:05 359K
20260508T12Z_MSC_RDPS_SpecificHumidity_IsbL-0100_RLatLon0.09_PT079H.grib2 2026-05-08 15:05 397K
20260508T12Z_MSC_RDPS_SpecificHumidity_IsbL-0150_RLatLon0.09_PT079H.grib2 2026-05-08 15:05 458K
20260508T12Z_MSC_RDPS_SpecificHumidity_IsbL-0175_RLatLon0.09_PT079H.grib2 2026-05-08 15:05 437K
20260508T12Z_MSC_RDPS_SpecificHumidity_IsbL-0200_RLatLon0.09_PT079H.grib2 2026-05-08 15:05 456K
20260508T12Z_MSC_RDPS_SpecificHumidity_IsbL-0225_RLatLon0.09_PT079H.grib2 2026-05-08 15:05 464K
20260508T12Z_MSC_RDPS_SpecificHumidity_IsbL-0250_RLatLon0.09_PT079H.grib2 2026-05-08 15:05 531K
20260508T12Z_MSC_RDPS_SpecificHumidity_IsbL-0275_RLatLon0.09_PT079H.grib2 2026-05-08 15:05 490K
20260508T12Z_MSC_RDPS_SpecificHumidity_IsbL-0300_RLatLon0.09_PT079H.grib2 2026-05-08 15:05 460K
20260508T12Z_MSC_RDPS_SpecificHumidity_IsbL-0350_RLatLon0.09_PT079H.grib2 2026-05-08 15:05 577K
20260508T12Z_MSC_RDPS_SpecificHumidity_IsbL-0400_RLatLon0.09_PT079H.grib2 2026-05-08 15:05 538K
20260508T12Z_MSC_RDPS_SpecificHumidity_IsbL-0450_RLatLon0.09_PT079H.grib2 2026-05-08 15:05 596K
20260508T12Z_MSC_RDPS_SpecificHumidity_IsbL-0500_RLatLon0.09_PT079H.grib2 2026-05-08 15:05 533K
20260508T12Z_MSC_RDPS_SpecificHumidity_IsbL-0550_RLatLon0.09_PT079H.grib2 2026-05-08 15:05 608K
20260508T12Z_MSC_RDPS_SpecificHumidity_IsbL-0600_RLatLon0.09_PT079H.grib2 2026-05-08 15:05 666K
20260508T12Z_MSC_RDPS_SpecificHumidity_IsbL-0650_RLatLon0.09_PT079H.grib2 2026-05-08 15:05 583K
20260508T12Z_MSC_RDPS_SpecificHumidity_IsbL-0700_RLatLon0.09_PT079H.grib2 2026-05-08 15:05 633K
20260508T12Z_MSC_RDPS_SpecificHumidity_IsbL-0750_RLatLon0.09_PT079H.grib2 2026-05-08 15:05 694K
20260508T12Z_MSC_RDPS_SpecificHumidity_IsbL-0800_RLatLon0.09_PT079H.grib2 2026-05-08 15:05 780K
20260508T12Z_MSC_RDPS_SpecificHumidity_IsbL-0850_RLatLon0.09_PT079H.grib2 2026-05-08 15:05 837K
20260508T12Z_MSC_RDPS_SpecificHumidity_IsbL-0875_RLatLon0.09_PT079H.grib2 2026-05-08 15:05 711K
20260508T12Z_MSC_RDPS_SpecificHumidity_IsbL-0900_RLatLon0.09_PT079H.grib2 2026-05-08 15:05 719K
20260508T12Z_MSC_RDPS_SpecificHumidity_IsbL-0925_RLatLon0.09_PT079H.grib2 2026-05-08 15:05 725K
20260508T12Z_MSC_RDPS_SpecificHumidity_IsbL-0950_RLatLon0.09_PT079H.grib2 2026-05-08 15:05 732K
20260508T12Z_MSC_RDPS_SpecificHumidity_IsbL-0970_RLatLon0.09_PT079H.grib2 2026-05-08 15:05 730K
20260508T12Z_MSC_RDPS_SpecificHumidity_IsbL-0985_RLatLon0.09_PT079H.grib2 2026-05-08 15:05 721K
20260508T12Z_MSC_RDPS_SpecificHumidity_IsbL-1000_RLatLon0.09_PT079H.grib2 2026-05-08 15:05 712K
20260508T12Z_MSC_RDPS_SpecificHumidity_IsbL-1015_RLatLon0.09_PT079H.grib2 2026-05-08 15:05 700K
20260508T12Z_MSC_RDPS_SpecificHumidity_Sfc_RLatLon0.09_PT079H.grib2 2026-05-08 15:05 360K
20260508T12Z_MSC_RDPS_StormRelativeHelicity_EtaL-10000_RLatLon0.09_PT079H.grib2 2026-05-08 15:05 1.1M
20260508T12Z_MSC_RDPS_StormSeverityIndex_EtaL-10000_RLatLon0.09_PT079H.grib2 2026-05-08 15:05 1.1M
20260508T12Z_MSC_RDPS_Thickness_IsbL-0850to0700_RLatLon0.09_PT079H.grib2 2026-05-08 15:05 250K
20260508T12Z_MSC_RDPS_Thickness_IsbL-1000to0500_RLatLon0.09_PT079H.grib2 2026-05-08 15:05 199K
20260508T12Z_MSC_RDPS_Thickness_IsbL-1000to0850_RLatLon0.09_PT079H.grib2 2026-05-08 15:05 266K
20260508T12Z_MSC_RDPS_TotalCloudCover_Sfc_RLatLon0.09_PT079H.grib2 2026-05-08 15:05 673K
20260508T12Z_MSC_RDPS_TotalTotalsIndex_Sfc_RLatLon0.09_PT079H.grib2 2026-05-08 15:05 2.4M
20260508T12Z_MSC_RDPS_UVIndex-ClearSky_Sfc_RLatLon0.09_PT079H.grib2 2026-05-08 15:05 233K
20260508T12Z_MSC_RDPS_UVIndex_Sfc_RLatLon0.09_PT079H.grib2 2026-05-08 15:05 563K
20260508T12Z_MSC_RDPS_UpwardLongwaveRadiationFlux_NTAtm_RLatLon0.09_PT079H.grib2 2026-05-08 15:05 387K
20260508T12Z_MSC_RDPS_UpwardShortwaveRadiationFlux_NTAtm_RLatLon0.09_PT079H.grib2 2026-05-08 15:05 586K
20260508T12Z_MSC_RDPS_VerticalVelocity_IsbL-0250_RLatLon0.09_PT079H.grib2 2026-05-08 15:05 570K
20260508T12Z_MSC_RDPS_VerticalVelocity_IsbL-0500_RLatLon0.09_PT079H.grib2 2026-05-08 15:05 539K
20260508T12Z_MSC_RDPS_VerticalVelocity_IsbL-0700_RLatLon0.09_PT079H.grib2 2026-05-08 15:05 601K
20260508T12Z_MSC_RDPS_VerticalVelocity_IsbL-0850_RLatLon0.09_PT079H.grib2 2026-05-08 15:05 538K
20260508T12Z_MSC_RDPS_VerticalWindShear_EtaL-6500_RLatLon0.09_PT079H.grib2 2026-05-08 15:05 1.2M
20260508T12Z_MSC_RDPS_WindChill_Sfc_RLatLon0.09_PT079H.grib2 2026-05-08 15:05 1.2M
20260508T12Z_MSC_RDPS_WindDir_AGL-10m_RLatLon0.09_PT079H.grib2 2026-05-08 15:05 1.0M
20260508T12Z_MSC_RDPS_WindDir_AGL-120m_RLatLon0.09_PT079H.grib2 2026-05-08 15:05 621K
20260508T12Z_MSC_RDPS_WindDir_AGL-40m_RLatLon0.09_PT079H.grib2 2026-05-08 15:05 641K
20260508T12Z_MSC_RDPS_WindDir_AGL-80m_RLatLon0.09_PT079H.grib2 2026-05-08 15:05 630K
20260508T12Z_MSC_RDPS_WindDir_IsbL-0001_RLatLon0.09_PT079H.grib2 2026-05-08 15:05 269K
20260508T12Z_MSC_RDPS_WindDir_IsbL-0005_RLatLon0.09_PT079H.grib2 2026-05-08 15:05 374K
20260508T12Z_MSC_RDPS_WindDir_IsbL-0010_RLatLon0.09_PT079H.grib2 2026-05-08 15:05 383K
20260508T12Z_MSC_RDPS_WindDir_IsbL-0020_RLatLon0.09_PT079H.grib2 2026-05-08 15:05 432K
20260508T12Z_MSC_RDPS_WindDir_IsbL-0030_RLatLon0.09_PT079H.grib2 2026-05-08 15:05 431K
20260508T12Z_MSC_RDPS_WindDir_IsbL-0050_RLatLon0.09_PT079H.grib2 2026-05-08 15:05 449K
20260508T12Z_MSC_RDPS_WindDir_IsbL-0100_RLatLon0.09_PT079H.grib2 2026-05-08 15:05 423K
20260508T12Z_MSC_RDPS_WindDir_IsbL-0150_RLatLon0.09_PT079H.grib2 2026-05-08 15:05 422K
20260508T12Z_MSC_RDPS_WindDir_IsbL-0175_RLatLon0.09_PT079H.grib2 2026-05-08 15:05 445K
20260508T12Z_MSC_RDPS_WindDir_IsbL-0200_RLatLon0.09_PT079H.grib2 2026-05-08 15:05 457K
20260508T12Z_MSC_RDPS_WindDir_IsbL-0225_RLatLon0.09_PT079H.grib2 2026-05-08 15:05 463K
20260508T12Z_MSC_RDPS_WindDir_IsbL-0250_RLatLon0.09_PT079H.grib2 2026-05-08 15:05 460K
20260508T12Z_MSC_RDPS_WindDir_IsbL-0275_RLatLon0.09_PT079H.grib2 2026-05-08 15:05 485K
20260508T12Z_MSC_RDPS_WindDir_IsbL-0300_RLatLon0.09_PT079H.grib2 2026-05-08 15:05 484K
20260508T12Z_MSC_RDPS_WindDir_IsbL-0350_RLatLon0.09_PT079H.grib2 2026-05-08 15:05 501K
20260508T12Z_MSC_RDPS_WindDir_IsbL-0400_RLatLon0.09_PT079H.grib2 2026-05-08 15:05 520K
20260508T12Z_MSC_RDPS_WindDir_IsbL-0450_RLatLon0.09_PT079H.grib2 2026-05-08 15:05 542K
20260508T12Z_MSC_RDPS_WindDir_IsbL-0500_RLatLon0.09_PT079H.grib2 2026-05-08 15:05 569K
20260508T12Z_MSC_RDPS_WindDir_IsbL-0550_RLatLon0.09_PT079H.grib2 2026-05-08 15:05 581K
20260508T12Z_MSC_RDPS_WindDir_IsbL-0600_RLatLon0.09_PT079H.grib2 2026-05-08 15:05 602K
20260508T12Z_MSC_RDPS_WindDir_IsbL-0650_RLatLon0.09_PT079H.grib2 2026-05-08 15:05 634K
20260508T12Z_MSC_RDPS_WindDir_IsbL-0700_RLatLon0.09_PT079H.grib2 2026-05-08 15:05 674K
20260508T12Z_MSC_RDPS_WindDir_IsbL-0750_RLatLon0.09_PT079H.grib2 2026-05-08 15:05 720K
20260508T12Z_MSC_RDPS_WindDir_IsbL-0800_RLatLon0.09_PT079H.grib2 2026-05-08 15:05 795K
20260508T12Z_MSC_RDPS_WindDir_IsbL-0850_RLatLon0.09_PT079H.grib2 2026-05-08 15:05 861K
20260508T12Z_MSC_RDPS_WindDir_IsbL-0875_RLatLon0.09_PT079H.grib2 2026-05-08 15:05 884K
20260508T12Z_MSC_RDPS_WindDir_IsbL-0900_RLatLon0.09_PT079H.grib2 2026-05-08 15:05 902K
20260508T12Z_MSC_RDPS_WindDir_IsbL-0925_RLatLon0.09_PT079H.grib2 2026-05-08 15:05 919K
20260508T12Z_MSC_RDPS_WindDir_IsbL-0950_RLatLon0.09_PT079H.grib2 2026-05-08 15:05 923K
20260508T12Z_MSC_RDPS_WindDir_IsbL-0970_RLatLon0.09_PT079H.grib2 2026-05-08 15:05 927K
20260508T12Z_MSC_RDPS_WindDir_IsbL-0985_RLatLon0.09_PT079H.grib2 2026-05-08 15:05 935K
20260508T12Z_MSC_RDPS_WindDir_IsbL-1000_RLatLon0.09_PT079H.grib2 2026-05-08 15:05 952K
20260508T12Z_MSC_RDPS_WindDir_IsbL-1015_RLatLon0.09_PT079H.grib2 2026-05-08 15:05 970K
20260508T12Z_MSC_RDPS_WindGust-Max_AGL-10m_RLatLon0.09_PT079H.grib2 2026-05-08 15:05 1.0M
20260508T12Z_MSC_RDPS_WindGust-Min_AGL-10m_RLatLon0.09_PT079H.grib2 2026-05-08 15:05 1.0M
20260508T12Z_MSC_RDPS_WindGust_AGL-10m_RLatLon0.09_PT079H.grib2 2026-05-08 15:05 1.0M
20260508T12Z_MSC_RDPS_WindSpeed_AGL-10m_RLatLon0.09_PT079H.grib2 2026-05-08 15:05 850K
20260508T12Z_MSC_RDPS_WindSpeed_AGL-120m_RLatLon0.09_PT079H.grib2 2026-05-08 15:05 552K
20260508T12Z_MSC_RDPS_WindSpeed_AGL-40m_RLatLon0.09_PT079H.grib2 2026-05-08 15:05 546K
20260508T12Z_MSC_RDPS_WindSpeed_AGL-80m_RLatLon0.09_PT079H.grib2 2026-05-08 15:05 554K
20260508T12Z_MSC_RDPS_WindSpeed_IsbL-0001_RLatLon0.09_PT079H.grib2 2026-05-08 15:05 257K
20260508T12Z_MSC_RDPS_WindSpeed_IsbL-0005_RLatLon0.09_PT079H.grib2 2026-05-08 15:05 347K
20260508T12Z_MSC_RDPS_WindSpeed_IsbL-0010_RLatLon0.09_PT079H.grib2 2026-05-08 15:05 365K
20260508T12Z_MSC_RDPS_WindSpeed_IsbL-0020_RLatLon0.09_PT079H.grib2 2026-05-08 15:05 328K
20260508T12Z_MSC_RDPS_WindSpeed_IsbL-0030_RLatLon0.09_PT079H.grib2 2026-05-08 15:05 326K
20260508T12Z_MSC_RDPS_WindSpeed_IsbL-0050_RLatLon0.09_PT079H.grib2 2026-05-08 15:05 448K
20260508T12Z_MSC_RDPS_WindSpeed_IsbL-0100_RLatLon0.09_PT079H.grib2 2026-05-08 15:05 467K
20260508T12Z_MSC_RDPS_WindSpeed_IsbL-0150_RLatLon0.09_PT079H.grib2 2026-05-08 15:05 369K
20260508T12Z_MSC_RDPS_WindSpeed_IsbL-0175_RLatLon0.09_PT079H.grib2 2026-05-08 15:05 397K
20260508T12Z_MSC_RDPS_WindSpeed_IsbL-0200_RLatLon0.09_PT079H.grib2 2026-05-08 15:05 434K
20260508T12Z_MSC_RDPS_WindSpeed_IsbL-0225_RLatLon0.09_PT079H.grib2 2026-05-08 15:05 444K
20260508T12Z_MSC_RDPS_WindSpeed_IsbL-0250_RLatLon0.09_PT079H.grib2 2026-05-08 15:05 451K
20260508T12Z_MSC_RDPS_WindSpeed_IsbL-0275_RLatLon0.09_PT079H.grib2 2026-05-08 15:05 471K
20260508T12Z_MSC_RDPS_WindSpeed_IsbL-0300_RLatLon0.09_PT079H.grib2 2026-05-08 15:05 468K
20260508T12Z_MSC_RDPS_WindSpeed_IsbL-0350_RLatLon0.09_PT079H.grib2 2026-05-08 15:05 475K
20260508T12Z_MSC_RDPS_WindSpeed_IsbL-0400_RLatLon0.09_PT079H.grib2 2026-05-08 15:05 459K
20260508T12Z_MSC_RDPS_WindSpeed_IsbL-0450_RLatLon0.09_PT079H.grib2 2026-05-08 15:05 463K
20260508T12Z_MSC_RDPS_WindSpeed_IsbL-0500_RLatLon0.09_PT079H.grib2 2026-05-08 15:05 467K
20260508T12Z_MSC_RDPS_WindSpeed_IsbL-0550_RLatLon0.09_PT079H.grib2 2026-05-08 15:05 468K
20260508T12Z_MSC_RDPS_WindSpeed_IsbL-0600_RLatLon0.09_PT079H.grib2 2026-05-08 15:05 596K
20260508T12Z_MSC_RDPS_WindSpeed_IsbL-0650_RLatLon0.09_PT079H.grib2 2026-05-08 15:05 661K
20260508T12Z_MSC_RDPS_WindSpeed_IsbL-0700_RLatLon0.09_PT079H.grib2 2026-05-08 15:05 688K
20260508T12Z_MSC_RDPS_WindSpeed_IsbL-0750_RLatLon0.09_PT079H.grib2 2026-05-08 15:05 718K
20260508T12Z_MSC_RDPS_WindSpeed_IsbL-0800_RLatLon0.09_PT079H.grib2 2026-05-08 15:05 769K
20260508T12Z_MSC_RDPS_WindSpeed_IsbL-0850_RLatLon0.09_PT079H.grib2 2026-05-08 15:05 821K
20260508T12Z_MSC_RDPS_WindSpeed_IsbL-0875_RLatLon0.09_PT079H.grib2 2026-05-08 15:05 839K
20260508T12Z_MSC_RDPS_WindSpeed_IsbL-0900_RLatLon0.09_PT079H.grib2 2026-05-08 15:05 853K
20260508T12Z_MSC_RDPS_WindSpeed_IsbL-0925_RLatLon0.09_PT079H.grib2 2026-05-08 15:05 867K
20260508T12Z_MSC_RDPS_WindSpeed_IsbL-0950_RLatLon0.09_PT079H.grib2 2026-05-08 15:05 869K
20260508T12Z_MSC_RDPS_WindSpeed_IsbL-0970_RLatLon0.09_PT079H.grib2 2026-05-08 15:05 865K
20260508T12Z_MSC_RDPS_WindSpeed_IsbL-0985_RLatLon0.09_PT079H.grib2 2026-05-08 15:05 861K
20260508T12Z_MSC_RDPS_WindSpeed_IsbL-1000_RLatLon0.09_PT079H.grib2 2026-05-08 15:05 857K
20260508T12Z_MSC_RDPS_WindSpeed_IsbL-1015_RLatLon0.09_PT079H.grib2 2026-05-08 15:05 851K
20260508T12Z_MSC_RDPS_WindU_AGL-10m_RLatLon0.09_PT079H.grib2 2026-05-08 15:05 440K
20260508T12Z_MSC_RDPS_WindU_AGL-120m_RLatLon0.09_PT079H.grib2 2026-05-08 15:05 422K
20260508T12Z_MSC_RDPS_WindU_AGL-40m_RLatLon0.09_PT079H.grib2 2026-05-08 15:05 543K
20260508T12Z_MSC_RDPS_WindU_AGL-80m_RLatLon0.09_PT079H.grib2 2026-05-08 15:05 541K
20260508T12Z_MSC_RDPS_WindU_IsbL-0001_RLatLon0.09_PT079H.grib2 2026-05-08 15:05 247K
20260508T12Z_MSC_RDPS_WindU_IsbL-0005_RLatLon0.09_PT079H.grib2 2026-05-08 15:05 287K
20260508T12Z_MSC_RDPS_WindU_IsbL-0010_RLatLon0.09_PT079H.grib2 2026-05-08 15:05 299K
20260508T12Z_MSC_RDPS_WindU_IsbL-0020_RLatLon0.09_PT079H.grib2 2026-05-08 15:05 357K
20260508T12Z_MSC_RDPS_WindU_IsbL-0030_RLatLon0.09_PT079H.grib2 2026-05-08 15:05 354K
20260508T12Z_MSC_RDPS_WindU_IsbL-0050_RLatLon0.09_PT079H.grib2 2026-05-08 15:05 339K
20260508T12Z_MSC_RDPS_WindU_IsbL-0100_RLatLon0.09_PT079H.grib2 2026-05-08 15:05 423K
20260508T12Z_MSC_RDPS_WindU_IsbL-0150_RLatLon0.09_PT079H.grib2 2026-05-08 15:05 386K
20260508T12Z_MSC_RDPS_WindU_IsbL-0175_RLatLon0.09_PT079H.grib2 2026-05-08 15:05 411K
20260508T12Z_MSC_RDPS_WindU_IsbL-0200_RLatLon0.09_PT079H.grib2 2026-05-08 15:05 427K
20260508T12Z_MSC_RDPS_WindU_IsbL-0225_RLatLon0.09_PT079H.grib2 2026-05-08 15:05 437K
20260508T12Z_MSC_RDPS_WindU_IsbL-0250_RLatLon0.09_PT079H.grib2 2026-05-08 15:05 440K
20260508T12Z_MSC_RDPS_WindU_IsbL-0275_RLatLon0.09_PT079H.grib2 2026-05-08 15:05 358K
20260508T12Z_MSC_RDPS_WindU_IsbL-0300_RLatLon0.09_PT079H.grib2 2026-05-08 15:05 354K
20260508T12Z_MSC_RDPS_WindU_IsbL-0350_RLatLon0.09_PT079H.grib2 2026-05-08 15:05 360K
20260508T12Z_MSC_RDPS_WindU_IsbL-0400_RLatLon0.09_PT079H.grib2 2026-05-08 15:05 361K
20260508T12Z_MSC_RDPS_WindU_IsbL-0450_RLatLon0.09_PT079H.grib2 2026-05-08 15:05 468K
20260508T12Z_MSC_RDPS_WindU_IsbL-0500_RLatLon0.09_PT079H.grib2 2026-05-08 15:05 472K
20260508T12Z_MSC_RDPS_WindU_IsbL-0550_RLatLon0.09_PT079H.grib2 2026-05-08 15:05 456K
20260508T12Z_MSC_RDPS_WindU_IsbL-0600_RLatLon0.09_PT079H.grib2 2026-05-08 15:05 466K
20260508T12Z_MSC_RDPS_WindU_IsbL-0650_RLatLon0.09_PT079H.grib2 2026-05-08 15:05 486K
20260508T12Z_MSC_RDPS_WindU_IsbL-0700_RLatLon0.09_PT079H.grib2 2026-05-08 15:05 511K
20260508T12Z_MSC_RDPS_WindU_IsbL-0750_RLatLon0.09_PT079H.grib2 2026-05-08 15:05 539K
20260508T12Z_MSC_RDPS_WindU_IsbL-0800_RLatLon0.09_PT079H.grib2 2026-05-08 15:05 583K
20260508T12Z_MSC_RDPS_WindU_IsbL-0850_RLatLon0.09_PT079H.grib2 2026-05-08 15:05 630K
20260508T12Z_MSC_RDPS_WindU_IsbL-0875_RLatLon0.09_PT079H.grib2 2026-05-08 15:05 645K
20260508T12Z_MSC_RDPS_WindU_IsbL-0900_RLatLon0.09_PT079H.grib2 2026-05-08 15:05 656K
20260508T12Z_MSC_RDPS_WindU_IsbL-0925_RLatLon0.09_PT079H.grib2 2026-05-08 15:05 665K
20260508T12Z_MSC_RDPS_WindU_IsbL-0950_RLatLon0.09_PT079H.grib2 2026-05-08 15:05 664K
20260508T12Z_MSC_RDPS_WindU_IsbL-0970_RLatLon0.09_PT079H.grib2 2026-05-08 15:05 662K
20260508T12Z_MSC_RDPS_WindU_IsbL-0985_RLatLon0.09_PT079H.grib2 2026-05-08 15:05 797K
20260508T12Z_MSC_RDPS_WindU_IsbL-1000_RLatLon0.09_PT079H.grib2 2026-05-08 15:05 794K
20260508T12Z_MSC_RDPS_WindU_IsbL-1015_RLatLon0.09_PT079H.grib2 2026-05-08 15:05 791K
20260508T12Z_MSC_RDPS_WindV_AGL-10m_RLatLon0.09_PT079H.grib2 2026-05-08 15:05 437K
20260508T12Z_MSC_RDPS_WindV_AGL-120m_RLatLon0.09_PT079H.grib2 2026-05-08 15:05 537K
20260508T12Z_MSC_RDPS_WindV_AGL-40m_RLatLon0.09_PT079H.grib2 2026-05-08 15:05 539K
20260508T12Z_MSC_RDPS_WindV_AGL-80m_RLatLon0.09_PT079H.grib2 2026-05-08 15:05 537K
20260508T12Z_MSC_RDPS_WindV_IsbL-0001_RLatLon0.09_PT079H.grib2 2026-05-08 15:05 250K
20260508T12Z_MSC_RDPS_WindV_IsbL-0005_RLatLon0.09_PT079H.grib2 2026-05-08 15:05 288K
20260508T12Z_MSC_RDPS_WindV_IsbL-0010_RLatLon0.09_PT079H.grib2 2026-05-08 15:05 302K
20260508T12Z_MSC_RDPS_WindV_IsbL-0020_RLatLon0.09_PT079H.grib2 2026-05-08 15:05 359K
20260508T12Z_MSC_RDPS_WindV_IsbL-0030_RLatLon0.09_PT079H.grib2 2026-05-08 15:05 318K
20260508T12Z_MSC_RDPS_WindV_IsbL-0050_RLatLon0.09_PT079H.grib2 2026-05-08 15:05 339K
20260508T12Z_MSC_RDPS_WindV_IsbL-0100_RLatLon0.09_PT079H.grib2 2026-05-08 15:05 419K
20260508T12Z_MSC_RDPS_WindV_IsbL-0150_RLatLon0.09_PT079H.grib2 2026-05-08 15:05 361K
20260508T12Z_MSC_RDPS_WindV_IsbL-0175_RLatLon0.09_PT079H.grib2 2026-05-08 15:05 411K
20260508T12Z_MSC_RDPS_WindV_IsbL-0200_RLatLon0.09_PT079H.grib2 2026-05-08 15:05 425K
20260508T12Z_MSC_RDPS_WindV_IsbL-0225_RLatLon0.09_PT079H.grib2 2026-05-08 15:05 336K
20260508T12Z_MSC_RDPS_WindV_IsbL-0250_RLatLon0.09_PT079H.grib2 2026-05-08 15:05 339K
20260508T12Z_MSC_RDPS_WindV_IsbL-0275_RLatLon0.09_PT079H.grib2 2026-05-08 15:05 356K
20260508T12Z_MSC_RDPS_WindV_IsbL-0300_RLatLon0.09_PT079H.grib2 2026-05-08 15:05 353K
20260508T12Z_MSC_RDPS_WindV_IsbL-0350_RLatLon0.09_PT079H.grib2 2026-05-08 15:05 358K
20260508T12Z_MSC_RDPS_WindV_IsbL-0400_RLatLon0.09_PT079H.grib2 2026-05-08 15:05 360K
20260508T12Z_MSC_RDPS_WindV_IsbL-0450_RLatLon0.09_PT079H.grib2 2026-05-08 15:05 466K
20260508T12Z_MSC_RDPS_WindV_IsbL-0500_RLatLon0.09_PT079H.grib2 2026-05-08 15:05 469K
20260508T12Z_MSC_RDPS_WindV_IsbL-0550_RLatLon0.09_PT079H.grib2 2026-05-08 15:05 470K
20260508T12Z_MSC_RDPS_WindV_IsbL-0600_RLatLon0.09_PT079H.grib2 2026-05-08 15:05 479K
20260508T12Z_MSC_RDPS_WindV_IsbL-0650_RLatLon0.09_PT079H.grib2 2026-05-08 15:05 499K
20260508T12Z_MSC_RDPS_WindV_IsbL-0700_RLatLon0.09_PT079H.grib2 2026-05-08 15:05 522K
20260508T12Z_MSC_RDPS_WindV_IsbL-0750_RLatLon0.09_PT079H.grib2 2026-05-08 15:05 534K
20260508T12Z_MSC_RDPS_WindV_IsbL-0800_RLatLon0.09_PT079H.grib2 2026-05-08 15:05 578K
20260508T12Z_MSC_RDPS_WindV_IsbL-0850_RLatLon0.09_PT079H.grib2 2026-05-08 15:05 624K
20260508T12Z_MSC_RDPS_WindV_IsbL-0875_RLatLon0.09_PT079H.grib2 2026-05-08 15:05 639K
20260508T12Z_MSC_RDPS_WindV_IsbL-0900_RLatLon0.09_PT079H.grib2 2026-05-08 15:05 651K
20260508T12Z_MSC_RDPS_WindV_IsbL-0925_RLatLon0.09_PT079H.grib2 2026-05-08 15:05 660K
20260508T12Z_MSC_RDPS_WindV_IsbL-0950_RLatLon0.09_PT079H.grib2 2026-05-08 15:05 660K
20260508T12Z_MSC_RDPS_WindV_IsbL-0970_RLatLon0.09_PT079H.grib2 2026-05-08 15:05 799K
20260508T12Z_MSC_RDPS_WindV_IsbL-0985_RLatLon0.09_PT079H.grib2 2026-05-08 15:05 795K
20260508T12Z_MSC_RDPS_WindV_IsbL-1000_RLatLon0.09_PT079H.grib2 2026-05-08 15:05 791K
20260508T12Z_MSC_RDPS_WindV_IsbL-1015_RLatLon0.09_PT079H.grib2 2026-05-08 15:05 833K